Home > Weather > Horw > Past weeks

Flag for Switzerland Past Weather in Horw, Lucerne, Switzerland — Yesterday and Last 2 Weeks

Now
68 °F

Mild.


Feels Like: 68 °F
Forecast: 55 / 81 °F
Wind: 2 mph from North

Location: Giswil

Current Time: May 26, 2016 at 12:54:13 PM

Latest Report: May 26, 2016 at 12:00 PM


Visibility: N/A

Pressure: 29.96 "Hg

Humidity: 52%

Dew Point: 50 °F

Location of HorwLocation

Past Weather in Horw — Graph

°F

Horw Temperature Yesterday

Maximum temperature yesterday: 67 °F (at 3:00 PM)
Minimum temperature yesterday: 41 °F (at 6:00 AM)
Average temperature yesterday: 55 °F

High & Low Weather Summary for the Past Weeks

 TemperatureHumidityPressure
High82 °F (May 22, 3:00 PM)100% (May 13, 11:00 PM)30.24 "Hg (May 13, 11:00 PM)
Low37 °F (May 20, 6:00 AM)22% (May 22, 5:00 PM)29.47 "Hg (May 11, 7:00 PM)
Average53 °F79%29.94 "Hg
* Reported May 11 11:00 AM — May 26 11:00 AM, Horw, Weather by CustomWeather, © 2016

Note: Actual official high and low records may vary slightly from our data, if they occured in-between our weather recording intervals... More about our weather records

Advertising

Horw Weather History for the Previous 24 Hours

Scroll right to see more
 ConditionsComfort  
Time TempWeatherWind HumidityBarometerVisibility
11:00 AM
Thu, May 26
64 °FMild.2 mph61%29.98 "HgN/A
10:00 AM62 °FCool.1 mph71%29.99 "HgN/A
9:00 AM58 °FCool.No wind83%30.02 "HgN/A
8:00 AM55 °FCool.1 mph90%30.03 "HgN/A
7:00 AM51 °FCool.1 mph100%30.03 "HgN/A
6:00 AM51 °FCool.1 mph99%30.03 "HgN/A
5:00 AM53 °FCool.No wind99%30.02 "HgN/A
3:00 AM51 °FCool.1 mph100%30.02 "HgN/A
2:00 AM52 °FCool.1 mph100%30.02 "HgN/A
1:00 AM54 °FCool.2 mph100%30.00 "HgN/A
12:00 AM55 °FCool.1 mph98%30.00 "HgN/A
11:00 PM
Wed, May 25
56 °FCool.1 mph97%29.99 "HgN/A
10:00 PM56 °FCool.No wind99%29.98 "HgN/A
9:00 PM58 °FCool.No wind97%29.98 "HgN/A
8:00 PM59 °FCool.1 mph91%29.98 "HgN/A
7:00 PM60 °FCool.3 mph84%29.96 "HgN/A
6:00 PM65 °FMild.1 mph62%29.92 "HgN/A
5:00 PM67 °FMild.2 mph53%29.90 "HgN/A
4:00 PM67 °FMild.2 mph53%29.89 "HgN/A
3:00 PM67 °FMild.3 mph55%29.89 "HgN/A
2:00 PM65 °FMild.5 mph59%29.90 "HgN/A
1:00 PM63 °FMild.3 mph60%29.91 "HgN/A
12:00 PM61 °FCool.3 mph62%29.93 "HgN/A
Weather by CustomWeather, © 2016

See weather overviewHow to use our weather pages